Total_Precipitation_Accumulation
0.42 0.34 0.42 0.47 0.43 0.50 0.68 0.64 0.53 0.26 0.20 0.20 0.18 0.19 0.20 0.21 0.20 0.20 0.22 0.23 0.21 0.20 0.24 0.29 0.30 0.34 0.40 0.48 0.50 0.49 0.52 0.64 0.83 0.94 1.03 1.08 1.10 1.11 1.15 1.16 1.07 1.05 1.06 1.05
0.46 0.24 0.33 0.38 0.32 0.35 0.38 0.35 0.32 0.21 0.18 0.15 0.14 0.16 0.18 0.20 0.22 0.22 0.25 0.26 0.21 0.20 0.21 0.24 0.28 0.31 0.35 0.42 0.48 0.50 0.52 0.52 0.66 0.85 0.98 1.05 1.09 1.16 1.18 1.19 1.17 1.11 1.05 1.03
0.82 0.37 0.63 0.72 0.40 0.37 0.37 0.34 0.31 0.33 0.29 0.17 0.13 0.15 0.19 0.21 0.23 0.24 0.25 0.25 0.21 0.20 0.20 0.22 0.24 0.27 0.33 0.38 0.43 0.45 0.42 0.42 0.51 0.67 0.86 0.97 1.03 1.11 1.23 1.23 1.20 1.16 1.07 1.00
1.25 0.97 1.31 0.68 0.31 0.31 0.39 0.44 0.39 0.36 0.30 0.23 0.19 0.18 0.19 0.24 0.27 0.26 0.25 0.24 0.22 0.20 0.20 0.21 0.22 0.23 0.31 0.35 0.36 0.39 0.39 0.37 0.39 0.49 0.66 0.83 0.98 1.06 1.14 1.24 1.25 1.19 1.10 1.02
1.71 1.37 0.84 0.38 0.28 0.40 0.46 0.50 0.43 0.35 0.27 0.23 0.20 0.18 0.20 0.22 0.25 0.27 0.27 0.25 0.22 0.20 0.20 0.20 0.21 0.24 0.27 0.29 0.33 0.34 0.35 0.36 0.34 0.38 0.49 0.65 0.81 0.94 1.02 1.14 1.16 1.14 1.09 1.00
1.86 1.46 0.80 0.43 0.26 0.29 0.39 0.57 0.37 0.31 0.31 0.28 0.27 0.29 0.29 0.27 0.24 0.25 0.23 0.22 0.21 0.20 0.19 0.19 0.21 0.25 0.28 0.28 0.30 0.33 0.34 0.33 0.33 0.36 0.41 0.52 0.65 0.79 0.94 1.06 1.12 1.12 1.10 1.01
1.46 1.23 0.65 0.38 0.27 0.26 0.57 0.65 0.36 0.33 0.35 0.34 0.36 0.36 0.32 0.27 0.24 0.24 0.21 0.20 0.21 0.20 0.19 0.19 0.22 0.26 0.31 0.30 0.30 0.32 0.33 0.33 0.33 0.34 0.36 0.44 0.57 0.70 0.88 1.01 1.12 1.12 1.06 1.04
0.97 1.16 0.73 0.38 0.34 0.54 0.65 0.41 0.35 0.32 0.32 0.34 0.32 0.30 0.28 0.26 0.24 0.23 0.22 0.20 0.22 0.21 0.20 0.19 0.22 0.27 0.32 0.31 0.30 0.32 0.31 0.32 0.32 0.31 0.34 0.40 0.53 0.66 0.82 0.97 1.11 1.13 1.06 1.08
0.71 0.67 0.49 0.43 0.50 0.52 0.45 0.40 0.35 0.34 0.32 0.32 0.32 0.31 0.29 0.25 0.23 0.22 0.22 0.21 0.21 0.23 0.22 0.21 0.22 0.28 0.34 0.32 0.32 0.31 0.32 0.33 0.33 0.33 0.35 0.38 0.47 0.63 0.83 0.94 1.06 1.13 1.05 1.05
0.54 0.42 0.33 0.32 0.33 0.36 0.37 0.36 0.33 0.32 0.33 0.31 0.31 0.31 0.27 0.22 0.22 0.21 0.21 0.21 0.20 0.22 0.24 0.25 0.28 0.32 0.34 0.35 0.34 0.31 0.33 0.34 0.33 0.36 0.41 0.41 0.47 0.58 0.77 0.93 1.04 1.14 1.07 1.01
0.45 0.34 0.28 0.24 0.25 0.27 0.28 0.27 0.25 0.27 0.30 0.31 0.29 0.26 0.23 0.20 0.19 0.20 0.22 0.21 0.20 0.21 0.23 0.29 0.35 0.34 0.32 0.34 0.36 0.34 0.34 0.36 0.36 0.38 0.43 0.46 0.51 0.59 0.70 0.82 1.04 1.24 1.16 1.09
0.43 0.35 0.37 0.31 0.24 0.23 0.23 0.23 0.23 0.23 0.25 0.25 0.24 0.22 0.18 0.18 0.19 0.20 0.20 0.18 0.19 0.20 0.22 0.28 0.33 0.34 0.32 0.33 0.36 0.37 0.37 0.37 0.40 0.44 0.45 0.47 0.55 0.65 0.76 0.82 0.92 0.97 1.06 1.15
0.33 0.29 0.29 0.27 0.24 0.22 0.21 0.20 0.21 0.21 0.21 0.22 0.20 0.19 0.18 0.17 0.19 0.21 0.21 0.20 0.20 0.20 0.23 0.27 0.31 0.32 0.33 0.35 0.40 0.42 0.43 0.43 0.44 0.46 0.46 0.47 0.54 0.66 0.79 0.86 0.92 0.94 0.98 1.07
0.21 0.22 0.25 0.24 0.25 0.21 0.19 0.18 0.18 0.19 0.19 0.19 0.20 0.19 0.18 0.17 0.18 0.22 0.23 0.23 0.23 0.22 0.24 0.27 0.30 0.35 0.35 0.37 0.43 0.45 0.47 0.51 0.53 0.51 0.50 0.52 0.58 0.68 0.79 0.89 0.97 1.01 1.05 1.13
0.19 0.21 0.26 0.23 0.21 0.19 0.19 0.19 0.20 0.21 0.21 0.21 0.21 0.22 0.21 0.21 0.20 0.23 0.26 0.26 0.28 0.27 0.27 0.28 0.31 0.37 0.40 0.41 0.45 0.47 0.49 0.51 0.56 0.58 0.57 0.58 0.62 0.72 0.82 0.89 0.95 1.01 1.07 1.25
0.19 0.19 0.20 0.19 0.20 0.20 0.20 0.21 0.21 0.24 0.24 0.24 0.25 0.26 0.27 0.26 0.25 0.27 0.29 0.29 0.31 0.31 0.29 0.28 0.31 0.37 0.43 0.46 0.48 0.48 0.49 0.57 0.62 0.64 0.62 0.62 0.67 0.76 0.84 0.92 0.95 1.00 1.05 1.14
0.28 0.25 0.22 0.22 0.22 0.21 0.22 0.23 0.24 0.26 0.28 0.28 0.29 0.31 0.32 0.30 0.28 0.29 0.30 0.30 0.32 0.32 0.29 0.29 0.31 0.36 0.41 0.44 0.48 0.51 0.54 0.56 0.62 0.63 0.63 0.66 0.72 0.79 0.86 0.94 0.96 0.96 0.98 1.06
0.32 0.32 0.30 0.30 0.29 0.26 0.22 0.22 0.23 0.26 0.29 0.32 0.33 0.34 0.35 0.33 0.31 0.30 0.33 0.32 0.34 0.35 0.30 0.29 0.31 0.38 0.40 0.43 0.48 0.52 0.56 0.59 0.61 0.63 0.67 0.73 0.79 0.84 0.90 0.96 0.94 0.94 0.97 1.06
0.27 0.27 0.27 0.28 0.29 0.30 0.27 0.23 0.22 0.23 0.26 0.29 0.33 0.36 0.36 0.34 0.32 0.33 0.35 0.36 0.38 0.39 0.35 0.34 0.38 0.40 0.40 0.46 0.55 0.54 0.59 0.63 0.67 0.68 0.70 0.79 0.84 0.82 0.88 0.94 0.96 0.94 0.96 0.98
0.25 0.25 0.27 0.27 0.27 0.29 0.29 0.24 0.22 0.22 0.24 0.28 0.32 0.33 0.35 0.35 0.35 0.36 0.38 0.40 0.41 0.43 0.41 0.42 0.42 0.43 0.45 0.52 0.59 0.58 0.62 0.67 0.73 0.77 0.77 0.78 0.83 0.86 0.88 0.94 0.99 0.97 0.95 0.93
0.28 0.29 0.29 0.29 0.27 0.26 0.28 0.28 0.27 0.27 0.26 0.28 0.32 0.35 0.37 0.38 0.35 0.36 0.40 0.43 0.42 0.43 0.44 0.46 0.48 0.53 0.60 0.64 0.66 0.63 0.67 0.71 0.77 0.83 0.84 0.85 0.87 0.89 0.90 0.95 0.99 0.97 0.95 0.94
0.34 0.34 0.34 0.33 0.31 0.29 0.29 0.31 0.32 0.33 0.31 0.30 0.32 0.35 0.39 0.38 0.35 0.34 0.36 0.44 0.47 0.51 0.50 0.48 0.54 0.65 0.72 0.74 0.68 0.66 0.68 0.72 0.79 0.84 0.86 0.90 0.93 0.95 0.94 0.95 0.98 0.95 0.93 0.94
0.41 0.41 0.40 0.39 0.38 0.38 0.35 0.35 0.39 0.41 0.41 0.39 0.40 0.42 0.43 0.42 0.40 0.44 0.45 0.44 0.49 0.56 0.57 0.57 0.66 0.76 0.80 0.76 0.72 0.71 0.73 0.76 0.82 0.88 0.91 0.94 0.95 0.95 0.96 0.95 0.94 0.95 0.96 0.96
0.45 0.45 0.46 0.44 0.41 0.41 0.42 0.43 0.44 0.46 0.48 0.49 0.48 0.50 0.52 0.51 0.47 0.46 0.53 0.57 0.59 0.65 0.64 0.65 0.74 0.82 0.85 0.81 0.77 0.78 0.82 0.85 0.89 0.95 0.96 0.96 0.98 0.97 0.95 0.96 0.96 0.93 0.92 0.93
0.48 0.48 0.47 0.46 0.45 0.48 0.52 0.53 0.51 0.51 0.50 0.51 0.50 0.51 0.54 0.58 0.60 0.57 0.59 0.63 0.64 0.67 0.65 0.66 0.74 0.82 0.83 0.83 0.82 0.84 0.88 0.92 1.02 1.08 1.04 1.01 0.99 0.99 0.97 0.96 0.95 0.93 0.93 0.93
0.51 0.53 0.56 0.58 0.60 0.61 0.63 0.61 0.61 0.59 0.57 0.56 0.54 0.56 0.59 0.60 0.62 0.64 0.67 0.67 0.67 0.69 0.68 0.67 0.70 0.78 0.83 0.86 0.85 0.86 0.91 0.99 1.07 1.07 1.00 0.99 0.98 0.98 0.98 0.96 0.93 0.91 0.91 0.93
0.52 0.54 0.56 0.57 0.58 0.64 0.68 0.70 0.70 0.70 0.68 0.66 0.66 0.64 0.64 0.66 0.67 0.68 0.68 0.68 0.67 0.69 0.72 0.75 0.78 0.85 0.92 0.93 0.93 0.93 0.97 1.00 1.02 1.05 1.03 1.01 0.99 0.98 0.96 0.95 0.94 0.94 0.93 0.91